• In Hungary
  • List of Countries
  • For 7 days
  • Water Temperature
  • Satellite Maps
  • Weather Map
  • News
  • Weather Widgets
  • user-avatar
    Login

    Hourly Weather Chumaky

    Today, 18 August, Saturday

    Time Temperature Precipitation Wind Pressure Humidity
    00:00 +26°C° 0 mm 4 mps 748 mmHg 43%
    01:00 +25°C° 0 mm 4 mps 748 mmHg 48%
    02:00 +25°C° 0 mm 4 mps 748 mmHg 54%
    03:00 +23°C° 0 mm 4 mps 748 mmHg 59%
    04:00 +22°C° 0 mm 4 mps 748 mmHg 64%
    05:00 +22°C° 0 mm 4 mps 748 mmHg 68%
    06:00 +21°C° 0 mm 4 mps 748 mmHg 73%
    07:00 +23°C° 0 mm 4 mps 749 mmHg 69%
    08:00 +25°C° 0 mm 5 mps 749 mmHg 64%
    09:00 +27°C° 0 mm 5 mps 749 mmHg 59%
    10:00 +28°C° 0 mm 5 mps 749 mmHg 52%
    11:00 +30°C° 0 mm 5 mps 749 mmHg 46%
    12:00 +33°C° 0 mm 5 mps 749 mmHg 39%
    13:00 +33°C° 0 mm 5 mps 749 mmHg 38%
    14:00 +33°C° 0 mm 5 mps 749 mmHg 37%
    15:00 +33°C° 0 mm 5 mps 749 mmHg 36%
    16:00 +32°C° 0 mm 5 mps 749 mmHg 36%
    17:00 +32°C° 0 mm 5 mps 749 mmHg 36%
    18:00 +30°C° 0 mm 6 mps 749 mmHg 37%
    19:00 +29°C° 0 mm 6 mps 749 mmHg 38%
    20:00 +27°C° 0 mm 6 mps 749 mmHg 39%
    21:00 +26°C° 0 mm 6 mps 750 mmHg 40%
    22:00 +25°C° 0 mm 5 mps 750 mmHg 41%
    23:00 +23°C° 0 mm 5 mps 750 mmHg 41%

    Tomorrow, 19 August, Sunday

    Time Temperature Precipitation Wind Pressure Humidity
    00:00 +22°C° 0 mm 5 mps 750 mmHg 42%
    01:00 +21°C° 0 mm 5 mps 750 mmHg 43%
    02:00 +20°C° 0 mm 5 mps 751 mmHg 44%
    03:00 +20°C° 0 mm 5 mps 751 mmHg 45%
    04:00 +19°C° 0 mm 5 mps 751 mmHg 47%
    05:00 +18°C° 0 mm 4 mps 751 mmHg 49%
    06:00 +18°C° 0 mm 4 mps 751 mmHg 50%
    07:00 +19°C° 0 mm 5 mps 751 mmHg 46%
    08:00 +21°C° 0 mm 5 mps 752 mmHg 41%
    09:00 +23°C° 0 mm 6 mps 752 mmHg 37%
    10:00 +24°C° 0 mm 6 mps 752 mmHg 34%
    11:00 +26°C° 0 mm 6 mps 752 mmHg 31%
    12:00 +27°C° 0 mm 6 mps 752 mmHg 28%
    13:00 +28°C° 0 mm 6 mps 752 mmHg 26%
    14:00 +28°C° 0 mm 6 mps 751 mmHg 25%
    15:00 +29°C° 0 mm 6 mps 751 mmHg 23%
    16:00 +28°C° 0 mm 5 mps 751 mmHg 24%
    17:00 +28°C° 0 mm 5 mps 751 mmHg 24%
    18:00 +28°C° 0 mm 5 mps 751 mmHg 24%
    19:00 +26°C° 0 mm 4 mps 751 mmHg 27%
    20:00 +23°C° 0 mm 4 mps 751 mmHg 30%
    21:00 +21°C° 0 mm 3 mps 751 mmHg 33%
    22:00 +20°C° 0 mm 3 mps 751 mmHg 34%
    23:00 +20°C° 0 mm 3 mps 751 mmHg 36%

    Day after tomorrow, 20 August, Monday

    Time Temperature Precipitation Wind Pressure Humidity
    00:00 +19°C° 0 mm 3 mps 752 mmHg 37%
    01:00 +18°C° 0 mm 3 mps 751 mmHg 39%
    02:00 +18°C° 0 mm 3 mps 751 mmHg 41%
    03:00 +17°C° 0 mm 3 mps 751 mmHg 42%
    04:00 +17°C° 0 mm 3 mps 751 mmHg 44%
    05:00 +17°C° 0 mm 3 mps 751 mmHg 45%
    06:00 +16°C° 0 mm 3 mps 751 mmHg 47%
    07:00 +18°C° 0 mm 3 mps 752 mmHg 42%
    08:00 +21°C° 0 mm 4 mps 752 mmHg 38%
    09:00 +23°C° 0 mm 4 mps 752 mmHg 34%
    10:00 +25°C° 0 mm 4 mps 752 mmHg 31%
    11:00 +27°C° 0 mm 4 mps 752 mmHg 28%
    12:00 +28°C° 0 mm 5 mps 752 mmHg 25%
    13:00 +29°C° 0 mm 4 mps 751 mmHg 24%
    14:00 +29°C° 0 mm 4 mps 751 mmHg 22%
    15:00 +30°C° 0 mm 4 mps 750 mmHg 21%
    16:00 +30°C° 0 mm 4 mps 750 mmHg 22%
    17:00 +29°C° 0 mm 4 mps 750 mmHg 23%
    18:00 +29°C° 0 mm 3 mps 750 mmHg 25%
    19:00 +27°C° 0 mm 3 mps 750 mmHg 28%
    20:00 +25°C° 0 mm 3 mps 750 mmHg 31%
    21:00 +22°C° 0 mm 3 mps 750 mmHg 34%
    22:00 +21°C° 0 mm 3 mps 750 mmHg 35%
    23:00 +21°C° 0 mm 3 mps 750 mmHg 36%

    21 August, Tuesday

    Time Temperature Precipitation Wind Pressure Humidity
    00:00 +20°C° 0 mm 2 mps 750 mmHg 37%
    01:00 +19°C° 0 mm 2 mps 750 mmHg 38%
    02:00 +19°C° 0 mm 2 mps 750 mmHg 39%
    03:00 +18°C° 0 mm 2 mps 750 mmHg 39%
    04:00 +18°C° 0 mm 2 mps 750 mmHg 40%
    05:00 +18°C° 0 mm 2 mps 750 mmHg 41%
    06:00 +18°C° 0 mm 2 mps 750 mmHg 42%
    07:00 +20°C° 0 mm 2 mps 750 mmHg 37%
    08:00 +23°C° 0 mm 2 mps 750 mmHg 33%
    09:00 +26°C° 0 mm 3 mps 751 mmHg 29%
    10:00 +27°C° 0 mm 3 mps 751 mmHg 26%
    11:00 +29°C° 0 mm 3 mps 750 mmHg 23%
    12:00 +30°C° 0 mm 3 mps 750 mmHg 20%
    13:00 +31°C° 0 mm 2 mps 750 mmHg 19%
    14:00 +32°C° 0 mm 2 mps 750 mmHg 19%
    15:00 +32°C° 0 mm 2 mps 749 mmHg 18%
    16:00 +32°C° 0 mm 2 mps 749 mmHg 19%
    17:00 +32°C° 0 mm 1 mps 749 mmHg 20%
    18:00 +32°C° 0 mm 1 mps 749 mmHg 20%
    19:00 +29°C° 0 mm 1 mps 749 mmHg 23%
    20:00 +27°C° 0 mm 1 mps 749 mmHg 25%
    21:00 +25°C° 0 mm 1 mps 749 mmHg 27%
    22:00 +24°C° 0 mm 1 mps 749 mmHg 28%
    23:00 +24°C° 0 mm 1 mps 749 mmHg 29%

    22 August, Wednesday

    Time Temperature Precipitation Wind Pressure Humidity
    00:00 +23°C° 0 mm 1 mps 749 mmHg 30%
    01:00 +23°C° 0 mm 1 mps 749 mmHg 32%
    02:00 +22°C° 0 mm 1 mps 749 mmHg 33%
    03:00 +22°C° 0 mm 1 mps 749 mmHg 34%
    04:00 +21°C° 0 mm 1 mps 749 mmHg 35%
    05:00 +21°C° 0 mm 1 mps 749 mmHg 36%
    06:00 +21°C° 0 mm 1 mps 749 mmHg 37%
    07:00 +23°C° 0 mm 1 mps 749 mmHg 33%
    08:00 +26°C° 0 mm 1 mps 749 mmHg 30%
    09:00 +28°C° 0 mm 1 mps 750 mmHg 26%
    10:00 +30°C° 0 mm 2 mps 749 mmHg 24%
    11:00 +31°C° 0 mm 2 mps 749 mmHg 22%
    12:00 +34°C° 0 mm 2 mps 749 mmHg 20%
    13:00 +34°C° 0 mm 2 mps 749 mmHg 20%
    14:00 +35°C° 0 mm 2 mps 749 mmHg 20%
    15:00 +35°C° 0 mm 3 mps 749 mmHg 20%
    16:00 +35°C° 0 mm 3 mps 749 mmHg 24%
    17:00 +34°C° 0 mm 3 mps 749 mmHg 27%
    18:00 +34°C° 0 mm 3 mps 749 mmHg 31%
    19:00 +31°C° 0 mm 3 mps 749 mmHg 38%
    20:00 +29°C° 0 mm 3 mps 749 mmHg 44%
    21:00 +27°C° 0 mm 4 mps 750 mmHg 51%
    22:00 +26°C° 0 mm 4 mps 750 mmHg 51%
    23:00 +25°C° 0 mm 4 mps 750 mmHg 52%

    23 August, Thursday

    Time Temperature Precipitation Wind Pressure Humidity
    00:00 +23°C° 0 mm 4 mps 750 mmHg 53%
    01:00 +23°C° 0 mm 4 mps 750 mmHg 51%
    02:00 +22°C° 0 mm 4 mps 750 mmHg 50%
    03:00 +21°C° 0 mm 4 mps 750 mmHg 48%
    04:00 +21°C° 0 mm 4 mps 750 mmHg 50%
    05:00 +20°C° 0 mm 4 mps 751 mmHg 51%
    06:00 +20°C° 0 mm 4 mps 751 mmHg 52%
    07:00 +21°C° 0 mm 4 mps 751 mmHg 49%
    08:00 +23°C° 0 mm 5 mps 751 mmHg 46%
    09:00 +25°C° 0 mm 5 mps 751 mmHg 44%
    10:00 +27°C° 0 mm 5 mps 751 mmHg 40%
    11:00 +28°C° 0 mm 5 mps 751 mmHg 37%
    12:00 +30°C° 0 mm 5 mps 751 mmHg 33%
    13:00 +30°C° 0 mm 4 mps 751 mmHg 31%
    14:00 +32°C° 0 mm 4 mps 750 mmHg 29%
    15:00 +32°C° 0 mm 4 mps 750 mmHg 27%
    16:00 +32°C° 0 mm 4 mps 750 mmHg 27%
    17:00 +30°C° 0 mm 4 mps 750 mmHg 27%
    18:00 +30°C° 0 mm 5 mps 750 mmHg 27%
    19:00 +28°C° 0 mm 4 mps 750 mmHg 28%
    20:00 +26°C° 0 mm 4 mps 750 mmHg 29%
    21:00 +25°C° 0 mm 4 mps 750 mmHg 30%
    22:00 +23°C° 0 mm 4 mps 750 mmHg 31%
    23:00 +22°C° 0 mm 4 mps 750 mmHg 32%
    Show more